PRIVATE WETTERSTATION BILLIGHEIM-ALLFELD                       ZURCK
Wetterdaten: Montag, 07.08.2017
Datum Zeit Temp. A. Temp. A. min Temp. A. max Feuchte A. Luftdruck Regen Wind Richtung Richtung Sonnenschein ET Solar Taupunkt Windchill Windben Empfang
07.08.2017 00:00 13,5 C 13,5 C 13,6 C 81 % 1021,3 hPa 0,0 l/m 0,0 km/h (0 Bft) N 0 0 min 0,025 mm 0 W/m 10,3 C 13,5 C 0,0 km/h (0 Bft) 100 %
07.08.2017 00:10 13,3 C 13,3 C 13,5 C 82 % 1021,2 hPa 0,0 l/m 0,0 km/h (0 Bft) N 0 0 min 0,000 mm 0 W/m 10,3 C 13,3 C 0,0 km/h (0 Bft) 100 %
07.08.2017 00:20 13,1 C 13,1 C 13,3 C 82 % 1021,2 hPa 0,0 l/m 0,0 km/h (0 Bft) N 0 0 min 0,000 mm 0 W/m 10,1 C 13,1 C 0,0 km/h (0 Bft) 100 %
07.08.2017 00:30 13,0 C 13,0 C 13,1 C 83 % 1021,1 hPa 0,0 l/m 0,0 km/h (0 Bft) N 0 0 min 0,000 mm 0 W/m 10,2 C 13,0 C 0,0 km/h (0 Bft) 100 %
07.08.2017 00:40 12,8 C 12,8 C 13,0 C 83 % 1021,2 hPa 0,0 l/m 0,0 km/h (0 Bft) N 0 0 min 0,000 mm 0 W/m 10,0 C 12,8 C 0,0 km/h (0 Bft) 100 %
07.08.2017 00:50 12,7 C 12,7 C 12,8 C 84 % 1021,1 hPa 0,0 l/m 0,0 km/h (0 Bft) N 0 0 min 0,000 mm 0 W/m 10,1 C 12,7 C 0,0 km/h (0 Bft) 100 %
07.08.2017 01:00 12,5 C 12,5 C 12,7 C 84 % 1021,1 hPa 0,0 l/m 0,0 km/h (0 Bft) N 0 0 min 0,025 mm 0 W/m 9,9 C 12,5 C 0,0 km/h (0 Bft) 100 %
07.08.2017 01:10 12,3 C 12,3 C 12,5 C 85 % 1021,2 hPa 0,0 l/m 0,0 km/h (0 Bft) NW 315 0 min 0,000 mm 0 W/m 9,9 C 12,3 C 4,8 km/h (1 Bft) 100 %
07.08.2017 01:20 12,3 C 12,3 C 12,3 C 85 % 1021,0 hPa 0,0 l/m 1,6 km/h (1 Bft) NW 315 0 min 0,000 mm 0 W/m 9,9 C 12,3 C 4,8 km/h (1 Bft) 100 %
07.08.2017 01:30 12,2 C 12,2 C 12,3 C 85 % 1021,1 hPa 0,0 l/m 0,0 km/h (0 Bft) N 0 0 min 0,000 mm 0 W/m 9,8 C 12,2 C 0,0 km/h (0 Bft) 100 %
07.08.2017 01:40 12,1 C 12,1 C 12,2 C 86 % 1021,1 hPa 0,0 l/m 1,6 km/h (1 Bft) NW 315 0 min 0,000 mm 0 W/m 9,8 C 12,1 C 6,4 km/h (2 Bft) 100 %
07.08.2017 01:50 11,9 C 11,9 C 12,1 C 86 % 1021,0 hPa 0,0 l/m 0,0 km/h (0 Bft) N 0 0 min 0,000 mm 0 W/m 9,6 C 11,9 C 0,0 km/h (0 Bft) 100 %
07.08.2017 02:00 11,8 C 11,8 C 11,9 C 86 % 1020,9 hPa 0,0 l/m 0,0 km/h (0 Bft) N 0 0 min 0,000 mm 0 W/m 9,5 C 11,8 C 0,0 km/h (0 Bft) 100 %
07.08.2017 02:10 11,7 C 11,7 C 11,8 C 86 % 1020,8 hPa 0,0 l/m 0,0 km/h (0 Bft) NW 315 0 min 0,000 mm 0 W/m 9,4 C 11,7 C 4,8 km/h (1 Bft) 99 %
07.08.2017 02:20 11,5 C 11,5 C 11,7 C 87 % 1020,9 hPa 0,0 l/m 1,6 km/h (1 Bft) NW 315 0 min 0,000 mm 0 W/m 9,4 C 11,5 C 8,0 km/h (2 Bft) 100 %
07.08.2017 02:30 11,3 C 11,3 C 11,5 C 87 % 1020,8 hPa 0,0 l/m 0,0 km/h (0 Bft) NW 315 0 min 0,000 mm 0 W/m 9,2 C 11,3 C 6,4 km/h (2 Bft) 100 %
07.08.2017 02:40 11,3 C 11,3 C 11,3 C 87 % 1020,8 hPa 0,0 l/m 0,0 km/h (0 Bft) NW 315 0 min 0,000 mm 0 W/m 9,2 C 11,3 C 1,6 km/h (1 Bft) 100 %
07.08.2017 02:50 11,2 C 11,2 C 11,3 C 87 % 1020,8 hPa 0,0 l/m 0,0 km/h (0 Bft) N-NW 337 0 min 0,000 mm 0 W/m 9,1 C 11,2 C 1,6 km/h (1 Bft) 100 %
07.08.2017 03:00 11,1 C 11,1 C 11,2 C 87 % 1020,6 hPa 0,0 l/m 0,0 km/h (0 Bft) N 0 0 min 0,000 mm 0 W/m 9,0 C 11,1 C 0,0 km/h (0 Bft) 100 %
07.08.2017 03:10 11,0 C 11,0 C 11,1 C 88 % 1020,6 hPa 0,0 l/m 0,0 km/h (0 Bft) N 0 0 min 0,000 mm 0 W/m 9,1 C 11,0 C 0,0 km/h (0 Bft) 100 %
07.08.2017 03:20 11,0 C 11,0 C 11,0 C 87 % 1020,5 hPa 0,0 l/m 0,0 km/h (0 Bft) N 0 0 min 0,000 mm 0 W/m 8,9 C 11,0 C 0,0 km/h (0 Bft) 100 %
07.08.2017 03:30 10,9 C 10,9 C 11,0 C 87 % 1020,4 hPa 0,0 l/m 0,0 km/h (0 Bft) N 0 0 min 0,000 mm 0 W/m 8,8 C 10,9 C 0,0 km/h (0 Bft) 99 %
07.08.2017 03:40 10,9 C 10,9 C 10,9 C 87 % 1020,4 hPa 0,0 l/m 0,0 km/h (0 Bft) N 0 0 min 0,000 mm 0 W/m 8,8 C 10,9 C 0,0 km/h (0 Bft) 100 %
07.08.2017 03:50 10,8 C 10,8 C 10,9 C 87 % 1020,4 hPa 0,0 l/m 0,0 km/h (0 Bft) N 0 0 min 0,000 mm 0 W/m 8,7 C 10,8 C 0,0 km/h (0 Bft) 100 %
07.08.2017 04:00 10,7 C 10,7 C 10,8 C 87 % 1020,3 hPa 0,0 l/m 0,0 km/h (0 Bft) N 0 0 min 0,000 mm 0 W/m 8,6 C 10,7 C 0,0 km/h (0 Bft) 100 %
07.08.2017 04:10 10,6 C 10,6 C 10,7 C 88 % 1020,3 hPa 0,0 l/m 0,0 km/h (0 Bft) N-NW 337 0 min 0,000 mm 0 W/m 8,7 C 10,6 C 3,2 km/h (1 Bft) 100 %
07.08.2017 04:20 10,5 C 10,4 C 10,6 C 88 % 1020,3 hPa 0,0 l/m 0,0 km/h (0 Bft) N 0 0 min 0,000 mm 0 W/m 8,6 C 10,5 C 0,0 km/h (0 Bft) 100 %
07.08.2017 04:30 10,4 C 10,4 C 10,5 C 88 % 1020,2 hPa 0,0 l/m 0,0 km/h (0 Bft) N 0 0 min 0,000 mm 0 W/m 8,5 C 10,4 C 0,0 km/h (0 Bft) 100 %
07.08.2017 04:40 10,3 C 10,3 C 10,4 C 88 % 1020,1 hPa 0,0 l/m 0,0 km/h (0 Bft) N 0 0 min 0,000 mm 0 W/m 8,4 C 10,3 C 0,0 km/h (0 Bft) 100 %
07.08.2017 04:50 10,3 C 10,3 C 10,3 C 88 % 1020,0 hPa 0,0 l/m 0,0 km/h (0 Bft) N 0 0 min 0,000 mm 0 W/m 8,4 C 10,3 C 0,0 km/h (0 Bft) 100 %
07.08.2017 05:00 10,2 C 10,2 C 10,3 C 88 % 1020,0 hPa 0,0 l/m 0,0 km/h (0 Bft) N 0 0 min 0,000 mm 0 W/m 8,3 C 10,2 C 0,0 km/h (0 Bft) 100 %
07.08.2017 05:10 10,1 C 10,1 C 10,2 C 88 % 1020,0 hPa 0,0 l/m 0,0 km/h (0 Bft) N 0 0 min 0,000 mm 0 W/m 8,2 C 10,1 C 0,0 km/h (0 Bft) 100 %
07.08.2017 05:20 10,1 C 10,1 C 10,2 C 88 % 1019,9 hPa 0,0 l/m 0,0 km/h (0 Bft) N 0 0 min 0,000 mm 0 W/m 8,2 C 10,1 C 0,0 km/h (0 Bft) 100 %
07.08.2017 05:30 9,9 C 9,9 C 10,1 C 88 % 1019,9 hPa 0,0 l/m 0,0 km/h (0 Bft) N 0 0 min 0,000 mm 0 W/m 8,0 C 9,9 C 0,0 km/h (0 Bft) 100 %
07.08.2017 05:40 9,9 C 9,9 C 9,9 C 88 % 1019,9 hPa 0,0 l/m 0,0 km/h (0 Bft) N 0 0 min 0,000 mm 0 W/m 8,0 C 9,9 C 0,0 km/h (0 Bft) 100 %
07.08.2017 05:50 9,8 C 9,8 C 9,9 C 89 % 1019,8 hPa 0,0 l/m 0,0 km/h (0 Bft) N 0 0 min 0,000 mm 0 W/m 8,1 C 9,8 C 0,0 km/h (0 Bft) 99 %
07.08.2017 06:00 9,8 C 9,8 C 9,9 C 89 % 1019,6 hPa 0,0 l/m 1,6 km/h (1 Bft) N-NW 337 0 min 0,000 mm 0 W/m 8,1 C 9,8 C 4,8 km/h (1 Bft) 100 %
07.08.2017 06:10 9,8 C 9,8 C 9,8 C 88 % 1019,6 hPa 0,0 l/m 1,6 km/h (1 Bft) N-NW 337 0 min 0,000 mm 5 W/m 7,9 C 9,8 C 6,4 km/h (2 Bft) 100 %
07.08.2017 06:20 9,7 C 9,7 C 9,8 C 88 % 1019,6 hPa 0,0 l/m 0,0 km/h (0 Bft) W-NW 292 0 min 0,000 mm 9 W/m 7,8 C 9,7 C 3,2 km/h (1 Bft) 99 %
07.08.2017 06:30 9,7 C 9,7 C 9,7 C 88 % 1019,7 hPa 0,0 l/m 0,0 km/h (0 Bft) W-NW 292 0 min 0,000 mm 12 W/m 7,8 C 9,7 C 3,2 km/h (1 Bft) 100 %
07.08.2017 06:40 9,7 C 9,7 C 9,7 C 89 % 1019,7 hPa 0,0 l/m 0,0 km/h (0 Bft) N 0 0 min 0,000 mm 16 W/m 8,0 C 9,7 C 0,0 km/h (0 Bft) 100 %
07.08.2017 06:50 9,7 C 9,7 C 9,7 C 89 % 1019,7 hPa 0,0 l/m 0,0 km/h (0 Bft) N 0 0 min 0,000 mm 18 W/m 8,0 C 9,7 C 0,0 km/h (0 Bft) 100 %
07.08.2017 07:00 9,7 C 9,7 C 9,7 C 89 % 1019,6 hPa 0,0 l/m 0,0 km/h (0 Bft) W-NW 292 0 min 0,000 mm 19 W/m 8,0 C 9,7 C 1,6 km/h (1 Bft) 100 %
07.08.2017 07:10 9,8 C 9,7 C 9,8 C 89 % 1019,6 hPa 0,0 l/m 0,0 km/h (0 Bft) N 0 0 min 0,000 mm 23 W/m 8,1 C 9,8 C 0,0 km/h (0 Bft) 100 %
07.08.2017 07:20 9,9 C 9,8 C 9,9 C 89 % 1019,5 hPa 0,0 l/m 0,0 km/h (0 Bft) N 0 0 min 0,000 mm 25 W/m 8,2 C 9,9 C 0,0 km/h (0 Bft) 100 %
07.08.2017 07:30 10,1 C 9,9 C 10,1 C 89 % 1019,5 hPa 0,0 l/m 0,0 km/h (0 Bft) N 0 0 min 0,000 mm 26 W/m 8,4 C 10,1 C 0,0 km/h (0 Bft) 100 %
07.08.2017 07:40 10,2 C 10,1 C 10,2 C 89 % 1019,5 hPa 0,0 l/m 0,0 km/h (0 Bft) NW 315 0 min 0,000 mm 30 W/m 8,5 C 10,2 C 1,6 km/h (1 Bft) 100 %
07.08.2017 07:50 10,4 C 10,2 C 10,4 C 89 % 1019,5 hPa 0,0 l/m 0,0 km/h (0 Bft) N 0 0 min 0,000 mm 32 W/m 8,7 C 10,4 C 0,0 km/h (0 Bft) 100 %
07.08.2017 08:00 10,6 C 10,4 C 10,6 C 88 % 1019,5 hPa 0,0 l/m 0,0 km/h (0 Bft) N 0 0 min 0,025 mm 33 W/m 8,7 C 10,6 C 0,0 km/h (0 Bft) 100 %
07.08.2017 08:10 10,8 C 10,6 C 10,8 C 88 % 1019,5 hPa 0,0 l/m 0,0 km/h (0 Bft) N 0 0 min 0,000 mm 35 W/m 8,9 C 10,8 C 0,0 km/h (0 Bft) 100 %
07.08.2017 08:20 11,2 C 10,8 C 11,2 C 89 % 1019,4 hPa 0,0 l/m 0,0 km/h (0 Bft) N 0 0 min 0,000 mm 37 W/m 9,5 C 11,2 C 0,0 km/h (0 Bft) 100 %
07.08.2017 08:30 11,6 C 11,2 C 11,6 C 88 % 1019,4 hPa 0,0 l/m 0,0 km/h (0 Bft) N 0 0 min 0,000 mm 47 W/m 9,7 C 11,6 C 0,0 km/h (0 Bft) 100 %
07.08.2017 08:40 12,4 C 11,6 C 12,4 C 89 % 1019,3 hPa 0,0 l/m 0,0 km/h (0 Bft) N 0 10 min 0,000 mm 353 W/m 10,6 C 12,4 C 0,0 km/h (0 Bft) 99 %
07.08.2017 08:50 13,8 C 12,4 C 13,8 C 88 % 1019,2 hPa 0,0 l/m 0,0 km/h (0 Bft) N 0 10 min 0,000 mm 394 W/m 11,8 C 13,8 C 0,0 km/h (0 Bft) 100 %
07.08.2017 09:00 15,2 C 13,8 C 15,2 C 85 % 1019,2 hPa 0,0 l/m 0,0 km/h (0 Bft) N 0 10 min 0,102 mm 427 W/m 12,7 C 15,2 C 0,0 km/h (0 Bft) 90 %
07.08.2017 09:10 16,5 C 15,2 C 16,5 C 82 % 1019,1 hPa 0,0 l/m 0,0 km/h (0 Bft) O 90 10 min 0,000 mm 462 W/m 13,4 C 16,5 C 4,8 km/h (1 Bft) 100 %
07.08.2017 09:20 17,7 C 16,6 C 17,7 C 77 % 1019,0 hPa 0,0 l/m 0,0 km/h (0 Bft) N 0 10 min 0,000 mm 492 W/m 13,6 C 17,7 C 0,0 km/h (0 Bft) 100 %
07.08.2017 09:30 19,0 C 17,8 C 19,0 C 73 % 1019,0 hPa 0,0 l/m 0,0 km/h (0 Bft) S 180 10 min 0,000 mm 522 W/m 14,0 C 19,0 C 8,0 km/h (2 Bft) 100 %
07.08.2017 09:40 19,8 C 19,0 C 19,8 C 67 % 1019,0 hPa 0,0 l/m 1,6 km/h (1 Bft) O 90 10 min 0,000 mm 548 W/m 13,5 C 19,8 C 6,4 km/h (2 Bft) 100 %
07.08.2017 09:50 20,6 C 19,8 C 20,6 C 66 % 1018,9 hPa 0,0 l/m 0,0 km/h (0 Bft) SO 135 10 min 0,000 mm 575 W/m 14,0 C 20,6 C 6,4 km/h (2 Bft) 100 %
07.08.2017 10:00 20,9 C 20,6 C 20,9 C 65 % 1018,8 hPa 0,0 l/m 1,6 km/h (1 Bft) O-SO 112 10 min 0,305 mm 601 W/m 14,1 C 20,9 C 8,0 km/h (2 Bft) 100 %
07.08.2017 10:10 21,4 C 20,9 C 21,4 C 65 % 1018,7 hPa 0,0 l/m 0,0 km/h (0 Bft) O-SO 112 10 min 0,000 mm 626 W/m 14,5 C 21,4 C 6,4 km/h (2 Bft) 100 %
07.08.2017 10:20 21,8 C 21,4 C 21,8 C 64 % 1018,6 hPa 0,0 l/m 0,0 km/h (0 Bft) NW 315 10 min 0,000 mm 652 W/m 14,7 C 21,8 C 1,6 km/h (1 Bft) 100 %
07.08.2017 10:30 22,0 C 21,8 C 22,0 C 62 % 1018,6 hPa 0,0 l/m 0,0 km/h (0 Bft) O-SO 112 10 min 0,000 mm 670 W/m 14,4 C 22,0 C 6,4 km/h (2 Bft) 100 %
07.08.2017 10:40 22,4 C 22,1 C 22,4 C 60 % 1018,5 hPa 0,0 l/m 0,0 km/h (0 Bft) N-NW 337 10 min 0,000 mm 694 W/m 14,2 C 22,4 C 6,4 km/h (2 Bft) 100 %
07.08.2017 10:50 22,7 C 22,4 C 22,7 C 58 % 1018,4 hPa 0,0 l/m 0,0 km/h (0 Bft) O 90 10 min 0,000 mm 710 W/m 14,0 C 22,7 C 1,6 km/h (1 Bft) 100 %
07.08.2017 11:00 23,1 C 22,7 C 23,1 C 59 % 1018,4 hPa 0,0 l/m 0,0 km/h (0 Bft) SO 135 10 min 0,406 mm 740 W/m 14,6 C 23,1 C 11,3 km/h (2 Bft) 100 %
07.08.2017 11:20 23,4 C 22,7 C 23,4 C 54 % 1018,3 hPa 0,0 l/m 0,7 km/h (0 Bft) N-NO 15 20 min 0,000 mm 812 W/m 13,6 C 23,4 C 11,3 km/h (2 Bft) 99 %
07.08.2017 11:30 23,8 C 23,4 C 23,8 C 55 % 1018,2 hPa 0,0 l/m 0,7 km/h (0 Bft) N-NW 338 10 min 0,000 mm 831 W/m 14,2 C 23,8 C 9,7 km/h (2 Bft) 100 %
07.08.2017 11:40 23,7 C 23,7 C 23,8 C 55 % 1018,0 hPa 0,0 l/m 3,0 km/h (1 Bft) N-NO 25 10 min 0,000 mm 870 W/m 14,1 C 23,7 C 16,1 km/h (3 Bft) 99 %
07.08.2017 11:50 23,3 C 23,3 C 23,7 C 53 % 1017,9 hPa 0,0 l/m 5,3 km/h (1 Bft) O-SO 108 10 min 0,000 mm 243 W/m 13,2 C 23,3 C 12,9 km/h (3 Bft) 100 %
07.08.2017 12:00 23,2 C 23,0 C 23,3 C 53 % 1017,8 hPa 0,0 l/m 5,1 km/h (1 Bft) SO 137 10 min 0,433 mm 896 W/m 13,1 C 23,2 C 17,7 km/h (3 Bft) 100 %
07.08.2017 12:10 23,8 C 23,2 C 23,8 C 52 % 1018,0 hPa 0,0 l/m 2,4 km/h (1 Bft) SO 127 10 min 0,000 mm 860 W/m 13,3 C 23,8 C 14,5 km/h (3 Bft) 99 %
07.08.2017 12:20 23,9 C 23,8 C 23,9 C 50 % 1017,8 hPa 0,0 l/m 3,2 km/h (1 Bft) SO 146 10 min 0,000 mm 874 W/m 12,8 C 23,9 C 17,7 km/h (3 Bft) 100 %
07.08.2017 12:30 24,2 C 23,9 C 24,2 C 50 % 1017,6 hPa 0,0 l/m 2,4 km/h (1 Bft) SO 136 10 min 0,000 mm 904 W/m 13,1 C 24,2 C 16,1 km/h (3 Bft) 100 %
07.08.2017 12:40 24,3 C 24,2 C 24,3 C 50 % 1017,7 hPa 0,0 l/m 2,8 km/h (1 Bft) O-SO 103 10 min 0,000 mm 227 W/m 13,2 C 24,3 C 17,7 km/h (3 Bft) 100 %
07.08.2017 12:50 24,1 C 24,1 C 24,3 C 53 % 1017,5 hPa 0,0 l/m 2,7 km/h (1 Bft) N-NO 23 10 min 0,000 mm 888 W/m 13,9 C 24,1 C 17,7 km/h (3 Bft) 100 %
07.08.2017 13:00 24,2 C 24,1 C 24,2 C 51 % 1017,2 hPa 0,0 l/m 1,9 km/h (1 Bft) O-SO 107 10 min 0,533 mm 875 W/m 13,4 C 24,2 C 12,9 km/h (3 Bft) 100 %
07.08.2017 13:10 24,6 C 24,2 C 24,6 C 51 % 1017,3 hPa 0,0 l/m 1,2 km/h (1 Bft) SW 219 10 min 0,000 mm 879 W/m 13,8 C 24,6 C 8,0 km/h (2 Bft) 100 %
07.08.2017 13:20 24,9 C 24,6 C 24,9 C 52 % 1017,1 hPa 0,0 l/m 0,4 km/h (0 Bft) NW 319 10 min 0,000 mm 879 W/m 14,4 C 24,9 C 9,7 km/h (2 Bft) 100 %
07.08.2017 13:30 25,3 C 24,9 C 25,3 C 50 % 1017,1 hPa 0,0 l/m 0,3 km/h (0 Bft) SO 146 10 min 0,000 mm 881 W/m 14,1 C 25,3 C 11,3 km/h (2 Bft) 100 %
07.08.2017 13:40 25,0 C 25,0 C 25,3 C 48 % 1016,9 hPa 0,0 l/m 2,4 km/h (1 Bft) N-NW 348 10 min 0,000 mm 888 W/m 13,2 C 25,0 C 14,5 km/h (3 Bft) 100 %
07.08.2017 13:50 25,2 C 25,0 C 25,2 C 48 % 1016,7 hPa 0,0 l/m 1,5 km/h (1 Bft) O-SO 120 10 min 0,000 mm 884 W/m 13,4 C 25,2 C 12,9 km/h (3 Bft) 99 %
07.08.2017 14:00 25,1 C 25,1 C 25,3 C 49 % 1016,7 hPa 0,0 l/m 3,4 km/h (1 Bft) SO 144 10 min 0,559 mm 858 W/m 13,6 C 25,1 C 16,1 km/h (3 Bft) 100 %
07.08.2017 14:10 24,9 C 24,8 C 25,1 C 51 % 1016,6 hPa 0,0 l/m 1,4 km/h (1 Bft) O-SO 107 10 min 0,000 mm 853 W/m 14,1 C 24,9 C 14,5 km/h (3 Bft) 100 %
07.08.2017 14:20 25,2 C 24,9 C 25,2 C 50 % 1016,6 hPa 0,0 l/m 0,7 km/h (0 Bft) NO 52 10 min 0,000 mm 844 W/m 14,0 C 25,2 C 11,3 km/h (2 Bft) 100 %
07.08.2017 14:30 25,6 C 25,2 C 25,6 C 53 % 1016,5 hPa 0,0 l/m 0,5 km/h (0 Bft) SO 133 10 min 0,000 mm 849 W/m 15,3 C 25,6 C 11,3 km/h (2 Bft) 100 %
07.08.2017 14:40 25,7 C 25,6 C 25,8 C 46 % 1016,3 hPa 0,0 l/m 0,9 km/h (0 Bft) S 177 10 min 0,000 mm 835 W/m 13,2 C 25,7 C 11,3 km/h (2 Bft) 99 %
07.08.2017 14:50 25,6 C 25,6 C 25,8 C 44 % 1016,4 hPa 0,0 l/m 2,3 km/h (1 Bft) S-SO 159 10 min 0,000 mm 824 W/m 12,4 C 25,6 C 11,3 km/h (2 Bft) 100 %
07.08.2017 15:00 25,6 C 25,5 C 25,6 C 45 % 1016,4 hPa 0,0 l/m 0,6 km/h (0 Bft) O-SO 106 10 min 0,533 mm 821 W/m 12,8 C 25,6 C 8,0 km/h (2 Bft) 100 %
07.08.2017 15:10 25,4 C 25,4 C 25,6 C 46 % 1016,1 hPa 0,0 l/m 1,6 km/h (1 Bft) S-SW 197 10 min 0,000 mm 798 W/m 12,9 C 25,4 C 14,5 km/h (3 Bft) 100 %
07.08.2017 15:20 25,7 C 25,4 C 25,7 C 49 % 1016,0 hPa 0,0 l/m 0,3 km/h (0 Bft) N-NW 339 10 min 0,000 mm 772 W/m 14,2 C 25,7 C 8,0 km/h (2 Bft) 100 %
07.08.2017 15:30 25,7 C 25,7 C 25,8 C 46 % 1015,9 hPa 0,0 l/m 2,0 km/h (1 Bft) O 98 10 min 0,000 mm 763 W/m 13,2 C 25,7 C 14,5 km/h (3 Bft) 100 %
07.08.2017 15:40 25,6 C 25,6 C 25,7 C 47 % 1015,8 hPa 0,0 l/m 1,1 km/h (1 Bft) O-SO 105 10 min 0,000 mm 747 W/m 13,4 C 25,6 C 9,7 km/h (2 Bft) 100 %
07.08.2017 15:50 25,7 C 25,6 C 25,7 C 47 % 1015,8 hPa 0,0 l/m 0,5 km/h (0 Bft) O-SO 109 10 min 0,000 mm 729 W/m 13,5 C 25,7 C 11,3 km/h (2 Bft) 100 %
07.08.2017 16:00 25,6 C 25,6 C 25,7 C 48 % 1015,7 hPa 0,0 l/m 0,1 km/h (0 Bft) O 90 10 min 0,483 mm 707 W/m 13,8 C 25,6 C 3,2 km/h (1 Bft) 100 %
07.08.2017 16:10 25,8 C 25,6 C 25,8 C 49 % 1015,5 hPa 0,0 l/m 0,3 km/h (0 Bft) O 95 10 min 0,000 mm 687 W/m 14,3 C 25,8 C 6,4 km/h (2 Bft) 100 %
07.08.2017 16:20 26,0 C 25,8 C 26,0 C 49 % 1015,4 hPa 0,0 l/m 0,2 km/h (0 Bft) O-NO 71 10 min 0,000 mm 668 W/m 14,4 C 26,0 C 8,0 km/h (2 Bft) 100 %
07.08.2017 16:30 25,9 C 25,9 C 26,0 C 48 % 1015,4 hPa 0,0 l/m 0,0 km/h (0 Bft) SO 130 10 min 0,000 mm 638 W/m 14,0 C 25,9 C 3,2 km/h (1 Bft) 100 %
07.08.2017 16:40 26,0 C 25,8 C 26,0 C 49 % 1015,3 hPa 0,0 l/m 0,1 km/h (0 Bft) N 5 10 min 0,000 mm 617 W/m 14,4 C 26,0 C 4,8 km/h (1 Bft) 100 %
07.08.2017 16:50 26,0 C 25,9 C 26,0 C 50 % 1015,3 hPa 0,0 l/m 0,3 km/h (0 Bft) SO 140 10 min 0,000 mm 587 W/m 14,8 C 26,0 C 6,4 km/h (2 Bft) 99 %
07.08.2017 17:00 26,0 C 26,0 C 26,0 C 49 % 1015,1 hPa 0,0 l/m 0,0 km/h (0 Bft) W-SW 250 0 min 0,381 mm 77 W/m 14,4 C 26,0 C 1,6 km/h (1 Bft) 100 %
07.08.2017 17:10 25,7 C 25,7 C 26,0 C 47 % 1015,0 hPa 0,0 l/m 0,9 km/h (0 Bft) SO 136 0 min 0,000 mm 70 W/m 13,5 C 25,7 C 8,0 km/h (2 Bft) 98 %
07.08.2017 17:20 25,6 C 25,6 C 25,7 C 50 % 1014,9 hPa 0,0 l/m 0,8 km/h (0 Bft) O-SO 119 0 min 0,000 mm 69 W/m 14,4 C 25,6 C 9,7 km/h (2 Bft) 100 %
07.08.2017 17:30 25,7 C 25,6 C 25,7 C 48 % 1014,9 hPa 0,0 l/m 0,1 km/h (0 Bft) O 94 0 min 0,000 mm 67 W/m 13,9 C 25,7 C 3,2 km/h (1 Bft) 100 %
07.08.2017 17:40 25,6 C 25,6 C 25,7 C 48 % 1014,8 hPa 0,0 l/m 0,1 km/h (0 Bft) W-SW 240 0 min 0,000 mm 63 W/m 13,8 C 25,6 C 3,2 km/h (1 Bft) 100 %
07.08.2017 17:50 25,6 C 25,6 C 25,6 C 49 % 1014,7 hPa 0,0 l/m 0,8 km/h (0 Bft) O 90 0 min 0,000 mm 65 W/m 14,1 C 25,6 C 11,3 km/h (2 Bft) 100 %
07.08.2017 18:00 25,3 C 25,3 C 25,6 C 47 % 1014,7 hPa 0,0 l/m 1,3 km/h (1 Bft) O-NO 72 0 min 0,051 mm 60 W/m 13,2 C 25,3 C 11,3 km/h (2 Bft) 100 %
07.08.2017 18:10 25,1 C 25,1 C 25,3 C 49 % 1014,5 hPa 0,0 l/m 0,5 km/h (0 Bft) O-SO 113 0 min 0,000 mm 67 W/m 13,6 C 25,1 C 8,0 km/h (2 Bft) 100 %
07.08.2017 18:20 25,0 C 25,0 C 25,1 C 50 % 1014,4 hPa 0,0 l/m 0,6 km/h (0 Bft) O-SO 108 0 min 0,000 mm 58 W/m 13,8 C 25,0 C 11,3 km/h (2 Bft) 98 %
07.08.2017 18:30 24,9 C 24,9 C 25,0 C 51 % 1014,3 hPa 0,0 l/m 0,5 km/h (0 Bft) O-SO 109 0 min 0,000 mm 58 W/m 14,1 C 24,9 C 8,0 km/h (2 Bft) 93 %
07.08.2017 18:40 24,8 C 24,8 C 24,9 C 51 % 1014,2 hPa 0,0 l/m 0,4 km/h (0 Bft) S 181 0 min 0,000 mm 53 W/m 14,0 C 24,8 C 6,4 km/h (2 Bft) 99 %
07.08.2017 18:50 24,6 C 24,6 C 24,8 C 51 % 1014,2 hPa 0,0 l/m 0,4 km/h (0 Bft) O 95 0 min 0,000 mm 47 W/m 13,8 C 24,6 C 11,3 km/h (2 Bft) 100 %
07.08.2017 19:00 24,3 C 24,3 C 24,6 C 53 % 1014,3 hPa 0,0 l/m 0,7 km/h (0 Bft) S-SO 157 0 min 0,051 mm 47 W/m 14,1 C 24,3 C 9,7 km/h (2 Bft) 100 %
07.08.2017 19:10 24,1 C 24,1 C 24,3 C 51 % 1014,2 hPa 0,0 l/m 0,5 km/h (0 Bft) O 100 0 min 0,000 mm 42 W/m 13,3 C 24,1 C 8,0 km/h (2 Bft) 100 %
07.08.2017 19:20 23,8 C 23,8 C 24,1 C 52 % 1014,1 hPa 0,0 l/m 0,1 km/h (0 Bft) S 186 0 min 0,000 mm 42 W/m 13,3 C 23,8 C 3,2 km/h (1 Bft) 100 %
07.08.2017 19:30 23,7 C 23,7 C 23,8 C 51 % 1014,0 hPa 0,0 l/m 0,1 km/h (0 Bft) O 94 0 min 0,000 mm 39 W/m 13,0 C 23,7 C 3,2 km/h (1 Bft) 99 %
07.08.2017 19:40 23,4 C 23,4 C 23,7 C 53 % 1013,8 hPa 0,0 l/m 0,0 km/h (0 Bft) O 93 0 min 0,000 mm 30 W/m 13,3 C 23,4 C 1,6 km/h (1 Bft) 100 %
07.08.2017 19:50 23,1 C 23,1 C 23,4 C 54 % 1013,8 hPa 0,0 l/m 0,0 km/h (0 Bft) O-SO 105 0 min 0,000 mm 30 W/m 13,3 C 23,1 C 1,6 km/h (1 Bft) 100 %
07.08.2017 20:00 22,8 C 22,8 C 23,1 C 54 % 1013,7 hPa 0,0 l/m 0,0 km/h (0 Bft) O-SO 102 0 min 0,025 mm 32 W/m 13,0 C 22,8 C 0,0 km/h (0 Bft) 100 %
07.08.2017 20:10 22,5 C 22,5 C 22,8 C 57 % 1013,8 hPa 0,0 l/m 0,0 km/h (0 Bft) O 92 0 min 0,000 mm 23 W/m 13,5 C 22,5 C 0,0 km/h (0 Bft) 100 %
07.08.2017 20:20 22,2 C 22,2 C 22,5 C 56 % 1013,7 hPa 0,0 l/m 0,0 km/h (0 Bft) O 92 0 min 0,000 mm 16 W/m 13,0 C 22,2 C 1,6 km/h (1 Bft) 100 %
07.08.2017 20:30 21,9 C 21,9 C 22,2 C 56 % 1013,9 hPa 0,0 l/m 0,0 km/h (0 Bft) O 93 0 min 0,000 mm 14 W/m 12,7 C 21,9 C 0,0 km/h (0 Bft) 100 %
07.08.2017 20:40 21,6 C 21,6 C 21,9 C 58 % 1013,8 hPa 0,0 l/m 0,0 km/h (0 Bft) O 93 0 min 0,000 mm 7 W/m 13,0 C 21,6 C 1,6 km/h (1 Bft) 100 %
07.08.2017 20:50 21,3 C 21,3 C 21,6 C 58 % 1013,7 hPa 0,0 l/m 0,0 km/h (0 Bft) O 88 0 min 0,000 mm 0 W/m 12,7 C 21,3 C 1,6 km/h (1 Bft) 100 %
07.08.2017 21:00 21,1 C 21,0 C 21,3 C 59 % 1013,7 hPa 0,0 l/m 0,0 km/h (0 Bft) O 80 0 min 0,025 mm 0 W/m 12,8 C 21,1 C 0,0 km/h (0 Bft) 99 %
07.08.2017 21:10 20,7 C 20,7 C 21,0 C 61 % 1013,6 hPa 0,0 l/m 0,0 km/h (0 Bft) O 90 0 min 0,000 mm 0 W/m 12,9 C 20,7 C 1,6 km/h (1 Bft) 100 %
07.08.2017 21:20 20,5 C 20,5 C 20,7 C 61 % 1013,6 hPa 0,0 l/m 0,0 km/h (0 Bft) O-NO 67 0 min 0,000 mm 0 W/m 12,7 C 20,5 C 1,6 km/h (1 Bft) 99 %
07.08.2017 21:30 20,2 C 20,2 C 20,5 C 62 % 1013,7 hPa 0,0 l/m 0,0 km/h (0 Bft) O 90 0 min 0,000 mm 0 W/m 12,7 C 20,2 C 3,2 km/h (1 Bft) 98 %
07.08.2017 21:40 20,0 C 20,0 C 20,2 C 63 % 1013,7 hPa 0,0 l/m 0,0 km/h (0 Bft) N 0 0 min 0,000 mm 0 W/m 12,7 C 20,0 C 0,0 km/h (0 Bft) 97 %
07.08.2017 21:50 19,8 C 19,8 C 20,0 C 64 % 1013,6 hPa 0,0 l/m 0,0 km/h (0 Bft) N 0 0 min 0,000 mm 0 W/m 12,8 C 19,8 C 0,0 km/h (0 Bft) 97 %
07.08.2017 22:00 19,7 C 19,7 C 19,8 C 65 % 1013,6 hPa 0,0 l/m 0,0 km/h (0 Bft) O-NO 67 0 min 0,025 mm 0 W/m 12,9 C 19,7 C 1,6 km/h (1 Bft) 98 %
07.08.2017 22:10 19,5 C 19,5 C 19,7 C 65 % 1013,6 hPa 0,0 l/m 0,0 km/h (0 Bft) O-NO 67 0 min 0,000 mm 0 W/m 12,7 C 19,5 C 3,2 km/h (1 Bft) 98 %
07.08.2017 22:20 19,3 C 19,3 C 19,5 C 66 % 1013,5 hPa 0,0 l/m 0,0 km/h (0 Bft) O 90 0 min 0,000 mm 0 W/m 12,8 C 19,3 C 1,6 km/h (1 Bft) 97 %
07.08.2017 22:30 19,2 C 19,2 C 19,3 C 66 % 1013,4 hPa 0,0 l/m 0,0 km/h (0 Bft) O 90 0 min 0,000 mm 0 W/m 12,7 C 19,2 C 3,2 km/h (1 Bft) 98 %
07.08.2017 22:40 19,1 C 19,1 C 19,2 C 67 % 1013,4 hPa 0,0 l/m 0,0 km/h (0 Bft) NO 45 0 min 0,000 mm 0 W/m 12,8 C 19,1 C 1,6 km/h (1 Bft) 97 %
07.08.2017 22:50 18,9 C 18,9 C 19,1 C 68 % 1013,2 hPa 0,0 l/m 0,0 km/h (0 Bft) N 0 0 min 0,000 mm 0 W/m 12,9 C 18,9 C 0,0 km/h (0 Bft) 97 %
07.08.2017 23:00 18,8 C 18,8 C 18,9 C 68 % 1013,2 hPa 0,0 l/m 0,0 km/h (0 Bft) O-SO 112 0 min 0,025 mm 0 W/m 12,8 C 18,8 C 4,8 km/h (1 Bft) 98 %
07.08.2017 23:10 18,7 C 18,7 C 18,8 C 68 % 1013,2 hPa 0,0 l/m 0,0 km/h (0 Bft) O 90 0 min 0,000 mm 0 W/m 12,7 C 18,7 C 1,6 km/h (1 Bft) 98 %
07.08.2017 23:20 18,6 C 18,6 C 18,7 C 69 % 1013,2 hPa 0,0 l/m 0,0 km/h (0 Bft) O-NO 67 0 min 0,000 mm 0 W/m 12,8 C 18,6 C 4,8 km/h (1 Bft) 97 %
07.08.2017 23:30 18,4 C 18,4 C 18,6 C 70 % 1013,0 hPa 0,0 l/m 0,0 km/h (0 Bft) O-NO 67 0 min 0,000 mm 0 W/m 12,8 C 18,4 C 3,2 km/h (1 Bft) 98 %
07.08.2017 23:40 18,3 C 18,3 C 18,4 C 70 % 1012,9 hPa 0,0 l/m 0,0 km/h (0 Bft) O 90 0 min 0,000 mm 0 W/m 12,7 C 18,3 C 1,6 km/h (1 Bft) 98 %
07.08.2017 23:50 18,1 C 18,1 C 18,3 C 71 % 1012,9 hPa 0,0 l/m 0,0 km/h (0 Bft) N 0 0 min 0,000 mm 0 W/m 12,8 C 18,1 C 0,0 km/h (0 Bft) 96 %
_ Min-Zeit 06:20 06:20 06:30 14:50 23:40 - 00:00 - - - - - 06:20 06:20 00:00 09:00
Minimum _ 9,7 C 9,7 C 9,7 C 44 % 1012,9 hPa - 0,0 km/h (0 Bft) - - - - - 7,8 C 9,7 C 0,0 km/h (0 Bft) 90 %
_ Max-Zeit 16:20 17:00 16:20 05:50 00:00 00:00 11:50 - - 11:20 14:00 12:30 14:30 16:20 12:00 00:00
Maximum _ 26,0 C 26,0 C 26,0 C 89 % 1021,3 hPa 0,0 l/m 5,3 km/h
O-SO (1 Bft)
- - 20 min 0,559 mm 904 W/m 15,3 C 26,0 C 17,7 km/h
S (3 Bft)
100 %
Durchschnitt _ 18,4 C 18,3 C 18,5 C 68 % 1017,4 hPa #0,0 l/m 0,5 km/h (0 Bft) O-SO - #8:20 h #4,012 mm 416 W/m 11,8 C 18,4 C 4,8 km/h (1 Bft) 99 %
PRIVATE WETTERSTATION BILLIGHEIM-ALLFELD - www.neckar-odenwald-wetter.de - Holger Sonntag